• In Kazakhstan
  • List of Countries
  • For 7 days
  • Water Temperature
  • Satellite Maps
  • Weather Map
  • News
  • Weather Widgets
  • user-avatar
    Login

    Hourly Weather Mayrhofen

    Today, 20 April, Saturday

    Time Temperature Precipitation Wind Pressure Humidity
    00:00 +1°C° 0 mm 2 mps 622 mmHg 68%
    01:00 0°C° 0 mm 3 mps 622 mmHg 67%
    02:00 +1°C° 0 mm 2 mps 622 mmHg 70%
    03:00 -1°C° 0 mm 2 mps 622 mmHg 72%
    04:00 -1°C° 0 mm 2 mps 622 mmHg 75%
    05:00 +1°C° 0 mm 2 mps 622 mmHg 73%
    06:00 +2°C° 0 mm 2 mps 623 mmHg 72%
    07:00 +4°C° 0 mm 2 mps 623 mmHg 66%
    08:00 +6°C° 0 mm 2 mps 624 mmHg 59%
    09:00 +7°C° 0 mm 2 mps 624 mmHg 51%
    10:00 +10°C° 0 mm 1 mps 625 mmHg 43%
    11:00 +11°C° 0 mm 1 mps 625 mmHg 40%
    12:00 +13°C° 0 mm 1 mps 625 mmHg 36%
    13:00 +14°C° 0 mm 2 mps 626 mmHg 32%
    14:00 +13°C° 0 mm 1 mps 625 mmHg 33%
    15:00 +13°C° 0 mm 1 mps 625 mmHg 33%
    16:00 +13°C° 0 mm 1 mps 625 mmHg 33%
    17:00 +11°C° 0 mm 1 mps 623 mmHg 42%
    18:00 +8°C° 0 mm 1 mps 622 mmHg 51%
    19:00 +6°C° 0 mm 1 mps 621 mmHg 61%
    20:00 +5°C° 0 mm 1 mps 621 mmHg 61%
    21:00 +3°C° 0 mm 2 mps 621 mmHg 61%
    22:00 +2°C° 0 mm 2 mps 621 mmHg 61%
    23:00 +2°C° 0 mm 2 mps 621 mmHg 62%

    Tomorrow, 21 April, Sunday

    Time Temperature Precipitation Wind Pressure Humidity
    00:00 +2°C° 0 mm 2 mps 621 mmHg 63%
    01:00 +1°C° 0 mm 2 mps 621 mmHg 63%
    02:00 +1°C° 0 mm 2 mps 620 mmHg 65%
    03:00 +1°C° 0 mm 2 mps 620 mmHg 66%
    04:00 +1°C° 0 mm 2 mps 619 mmHg 67%
    05:00 +2°C° 0 mm 2 mps 620 mmHg 64%
    06:00 +3°C° 0 mm 2 mps 620 mmHg 61%
    07:00 +4°C° 0 mm 2 mps 620 mmHg 58%
    08:00 +7°C° 0 mm 2 mps 621 mmHg 49%
    09:00 +9°C° 0 mm 2 mps 621 mmHg 39%
    10:00 +12°C° 0 mm 1 mps 622 mmHg 30%
    11:00 +13°C° 0 mm 1 mps 622 mmHg 28%
    12:00 +14°C° 0 mm 2 mps 622 mmHg 26%
    13:00 +15°C° 0 mm 2 mps 622 mmHg 24%
    14:00 +15°C° 0 mm 2 mps 621 mmHg 25%
    15:00 +15°C° 0 mm 2 mps 621 mmHg 26%
    16:00 +15°C° 0 mm 2 mps 620 mmHg 27%
    17:00 +12°C° 0 mm 2 mps 619 mmHg 36%
    18:00 +9°C° 0 mm 2 mps 618 mmHg 44%
    19:00 +6°C° 0 mm 2 mps 617 mmHg 52%
    20:00 +5°C° 0 mm 2 mps 617 mmHg 57%
    21:00 +4°C° 0 mm 2 mps 617 mmHg 61%
    22:00 +2°C° 0 mm 3 mps 617 mmHg 66%
    23:00 +1°C° 0 mm 3 mps 616 mmHg 70%

    Day after tomorrow, 22 April, Monday

    Time Temperature Precipitation Wind Pressure Humidity
    00:00 +1°C° 0 mm 3 mps 616 mmHg 75%
    01:00 0°C° 0 mm 3 mps 616 mmHg 80%
    02:00 0°C° 0 mm 3 mps 615 mmHg 81%
    03:00 0°C° 0 mm 3 mps 615 mmHg 83%
    04:00 0°C° 0 mm 3 mps 614 mmHg 85%
    05:00 +1°C° 0 mm 3 mps 615 mmHg 78%
    06:00 +2°C° 0 mm 3 mps 615 mmHg 72%
    07:00 +3°C° 0 mm 3 mps 615 mmHg 66%
    08:00 +5°C° 0 mm 3 mps 615 mmHg 54%
    09:00 +9°C° 0 mm 3 mps 615 mmHg 42%
    10:00 +11°C° 0 mm 3 mps 616 mmHg 29%
    11:00 +12°C° 0 mm 3 mps 616 mmHg 28%
    12:00 +13°C° 0 mm 3 mps 616 mmHg 27%
    13:00 +14°C° 0 mm 3 mps 615 mmHg 26%
    14:00 +14°C° 0 mm 3 mps 615 mmHg 27%
    15:00 +13°C° 0 mm 3 mps 614 mmHg 28%
    16:00 +13°C° 0 mm 3 mps 614 mmHg 29%
    17:00 +11°C° 0 mm 3 mps 613 mmHg 38%
    18:00 +9°C° 0 mm 3 mps 612 mmHg 47%
    19:00 +7°C° 0 mm 3 mps 610 mmHg 56%
    20:00 +5°C° 0 mm 3 mps 610 mmHg 64%
    21:00 +4°C° 0 mm 3 mps 610 mmHg 72%
    22:00 +3°C° 0 mm 4 mps 610 mmHg 80%
    23:00 +3°C° 0 mm 4 mps 609 mmHg 81%

    23 April, Tuesday

    Time Temperature Precipitation Wind Pressure Humidity
    00:00 +3°C° 0 mm 4 mps 609 mmHg 83%
    01:00 +3°C° 0 mm 4 mps 609 mmHg 84%
    02:00 +1°C° 0 mm 4 mps 608 mmHg 84%
    03:00 +1°C° 0 mm 4 mps 608 mmHg 83%
    04:00 +1°C° 0 mm 3 mps 607 mmHg 83%
    05:00 +2°C° 0.1 mm 3 mps 607 mmHg 80%
    06:00 +3°C° 0.1 mm 3 mps 607 mmHg 78%
    07:00 +4°C° 0.1 mm 3 mps 607 mmHg 75%
    08:00 +5°C° 0 mm 4 mps 608 mmHg 69%
    09:00 +7°C° 0 mm 4 mps 608 mmHg 63%
    10:00 +8°C° 0 mm 4 mps 609 mmHg 56%
    11:00 +10°C° 0 mm 4 mps 609 mmHg 54%
    12:00 +11°C° 0 mm 4 mps 609 mmHg 52%
    13:00 +12°C° 0 mm 4 mps 610 mmHg 49%
    14:00 +12°C° 0.1 mm 4 mps 609 mmHg 52%
    15:00 +11°C° 0.1 mm 4 mps 609 mmHg 55%
    16:00 +11°C° 0.1 mm 4 mps 609 mmHg 58%
    17:00 +8°C° 0 mm 4 mps 608 mmHg 64%
    18:00 +7°C° 0 mm 3 mps 608 mmHg 71%
    19:00 +5°C° 0 mm 3 mps 608 mmHg 77%
    20:00 +4°C° 0 mm 3 mps 608 mmHg 80%
    21:00 +3°C° 0 mm 4 mps 608 mmHg 83%
    22:00 +3°C° 0 mm 4 mps 608 mmHg 86%
    23:00 +3°C° 0 mm 4 mps 608 mmHg 87%

    24 April, Wednesday

    Time Temperature Precipitation Wind Pressure Humidity
    00:00 +3°C° 0 mm 4 mps 609 mmHg 87%
    01:00 +3°C° 0 mm 4 mps 609 mmHg 88%
    02:00 +1°C° 0 mm 4 mps 609 mmHg 88%
    03:00 +1°C° 0 mm 4 mps 609 mmHg 88%
    04:00 +1°C° 0 mm 4 mps 609 mmHg 88%
    05:00 +3°C° 0 mm 4 mps 610 mmHg 85%
    06:00 +3°C° 0 mm 4 mps 611 mmHg 83%
    07:00 +4°C° 0 mm 4 mps 611 mmHg 80%
    08:00 +6°C° 0 mm 4 mps 612 mmHg 73%
    09:00 +8°C° 0 mm 4 mps 613 mmHg 66%
    10:00 +10°C° 0 mm 4 mps 614 mmHg 59%
    11:00 +10°C° 0 mm 5 mps 614 mmHg 58%
    12:00 +10°C° 0 mm 5 mps 614 mmHg 57%
    13:00 +10°C° 0 mm 5 mps 615 mmHg 56%
    14:00 +10°C° 0 mm 5 mps 614 mmHg 57%
    15:00 +10°C° 0 mm 5 mps 614 mmHg 58%
    16:00 +10°C° 0 mm 4 mps 614 mmHg 59%
    17:00 +8°C° 0 mm 4 mps 614 mmHg 66%
    18:00 +7°C° 0 mm 4 mps 613 mmHg 72%
    19:00 +6°C° 0 mm 4 mps 613 mmHg 78%
    20:00 +5°C° 0 mm 4 mps 614 mmHg 81%
    21:00 +5°C° 0 mm 4 mps 614 mmHg 85%
    22:00 +4°C° 0 mm 4 mps 615 mmHg 88%
    23:00 +4°C° 0 mm 4 mps 615 mmHg 88%

    25 April, Thursday

    Time Temperature Precipitation Wind Pressure Humidity
    00:00 +4°C° 0 mm 3 mps 615 mmHg 87%
    01:00 +4°C° 0 mm 3 mps 615 mmHg 87%
    02:00 +4°C° 0 mm 3 mps 615 mmHg 88%
    03:00 +3°C° 0 mm 3 mps 615 mmHg 88%
    04:00 +3°C° 0 mm 3 mps 615 mmHg 89%
    05:00 +4°C° 0 mm 4 mps 615 mmHg 87%
    06:00 +5°C° 0 mm 4 mps 616 mmHg 84%
    07:00 +5°C° 0 mm 4 mps 616 mmHg 82%
    08:00 +6°C° 0 mm 4 mps 616 mmHg 77%
    09:00 +7°C° 0 mm 4 mps 616 mmHg 72%
    10:00 +8°C° 0 mm 5 mps 617 mmHg 68%
    11:00 +9°C° 0 mm 5 mps 617 mmHg 67%
    12:00 +9°C° 0 mm 5 mps 617 mmHg 66%
    13:00 +10°C° 0 mm 5 mps 617 mmHg 65%
    14:00 +10°C° 0.1 mm 5 mps 616 mmHg 65%
    15:00 +10°C° 0.1 mm 5 mps 616 mmHg 65%
    16:00 +11°C° 0.1 mm 4 mps 616 mmHg 66%
    17:00 +8°C° 0.1 mm 4 mps 615 mmHg 71%
    18:00 +7°C° 0.1 mm 4 mps 615 mmHg 77%
    19:00 +6°C° 0.1 mm 4 mps 614 mmHg 82%
    20:00 +6°C° 0.1 mm 4 mps 614 mmHg 85%
    21:00 +5°C° 0.1 mm 4 mps 614 mmHg 87%
    22:00 +5°C° 0.1 mm 4 mps 614 mmHg 90%
    23:00 +5°C° 0.1 mm 4 mps 614 mmHg 90%
    Show more